Content
SEND FEEDBACK

Daily
Averages
Monthly
Summary
United States of America

FRIO TOWN, TEXAS


Home > North America > United States > Texas
Elevation: 630 feet     Latitude: 29 00N     Longitude: 099 18W

WEATHER
 
SELECT A DAY
Number of Records: 196,307;   Date Range: 3/15/96 - 8/12/14
 
SHARE

PRINT THIS DATA

[ ← Previous Day ]
WEATHER ALMANAC - JANUARY 23, 2013
[ Next Day → ]
[ °C ]   °F
Weather ElementAverageHighLow
Temperature56.6 °F77 °F (3:51 pm)44.1 °F (6:51 am)
Dewpoint49.8 °F57 °F (11:51 am)42.1 °F (2:51 am)
Humidity80 %100 % (9:04 am)45 % (3:51 pm)
Barometer30.29 in30.37 in (11:16 am)30.20 in (4:51 pm)
Wind Speed3.3 mph9.2 mph (2:51 pm)
Weather ElementAverage
Visibility8 mi
Wind DirectionENE (72.6 °)

Weather ElementTotal
Precipitation---
Heating Degree Days4.5 (Base 65)
Growing Degree Days10.6 (Base 50)
Averaged from 35 records on January 23, 2013
WEATHER CONDITIONS BREAKOUT
WIND DIRECTION BREAKOUT
WEATHER BY HOUR - JANUARY 23, 2013
[ °C ]   °F
Local TimeTemperatureDewpointHumidityBarometerVisibilityWind DirectionWind SpeedGust SpeedPrecipitationEventsConditions
1:51 AM46.9 °F44.1 °F90 %30.26 in10.0 miCalmClear
2:51 AM46.0 °F42.1 °F86 %30.26 in10.0 miNNE (30°)4.6 mphMostly Cloudy
3:51 AM50.0 °F46.0 °F86 %30.26 in10.0 miNorth (10°)4.6 mphOvercast
4:51 AM50.0 °F45.0 °F83 %30.25 in10.0 miCalmOvercast
5:51 AM45.0 °F42.1 °F90 %30.26 in10.0 miNorth (360°)6.9 mphClear
6:51 AM44.1 °F42.1 °F93 %30.27 in10.0 miNNE (20°)4.6 mphClear
7:51 AM44.1 °F42.1 °F93 %30.30 in7.0 miNNE (30°)6.9 mphClear
8:00 AM44.6 °F42.8 °F93 %30.32 in5.0 miNE (40°)4.6 mphScattered Clouds
8:09 AM46.4 °F44.6 °F93 %30.32 in4.0 miCalmMostly Cloudy
8:19 AM48.2 °F46.4 °F93 %30.32 in6.0 miNE (40°)3.5 mphOvercast
8:34 AM51.8 °F48.2 °F88 %30.32 in4.0 miCalmOvercast
8:51 AM52.0 °F50.0 °F93 %30.31 in2.5 miEast (100°)3.5 mphOvercast
8:57 AM51.8 °F50.0 °F94 %30.33 in1.8 miEast (90°)3.5 mphOvercast
9:04 AM51.8 °F51.8 °F100 %30.33 in2.5 miEast (90°)3.5 mphOvercast
9:12 AM51.8 °F50.0 °F94 %30.34 in3.0 miCalmOvercast
9:28 AM53.6 °F51.8 °F94 %30.34 in5.0 miCalmOvercast
9:38 AM53.6 °F51.8 °F94 %30.35 in6.0 miCalmOvercast
9:51 AM55.0 °F52.0 °F89 %30.34 in7.0 miCalmOvercast
10:11 AM55.4 °F51.8 °F88 %30.36 in7.0 miCalmOvercast
10:51 AM59.0 °F54.0 °F83 %30.35 in10.0 miCalmOvercast
11:16 AM60.8 °F55.4 °F82 %30.37 in10.0 miCalmOvercast
11:51 AM63.0 °F57.0 °F81 %30.33 in10.0 miVariable4.6 mphOvercast
12:25 PM66.2 °F55.4 °F68 %30.33 in10.0 miSSW (200°)8.1 mphScattered Clouds
12:51 PM69.1 °F57.0 °F65 %30.28 in10.0 miSouth (180°)8.1 mphClear
1:51 PM73.4 °F55.4 °F53 %30.27 in10.0 miSSW (200°)8.1 mphClear
2:51 PM75.2 °F55.4 °F50 %30.24 in10.0 miSSW (210°)9.2 mphClear
3:51 PM77.0 °F54.0 °F45 %30.21 in10.0 miSouth (190°)8.1 mphPartly Cloudy
4:51 PM75.9 °F54.0 °F46 %30.20 in10.0 miSouth (190°)6.9 mphClear
5:51 PM71.1 °F54.0 °F55 %30.21 in10.0 miSouth (190°)5.8 mphClear
6:51 PM66.0 °F53.1 °F63 %30.21 in10.0 miSouth (170°)4.6 mphClear
7:51 PM62.1 °F53.1 °F72 %30.22 in10.0 miSouth (170°)3.5 mphClear
8:51 PM59.0 °F48.0 °F67 %30.23 in10.0 miCalmClear
9:51 PM57.0 °F48.9 °F74 %30.23 in10.0 miCalmClear
10:51 PM52.0 °F45.0 °F77 %30.24 in10.0 miCalmClear
11:51 PM51.1 °F46.9 °F86 %30.25 in10.0 miNNE (30°)3.5 mphClear
Hourly data recorded from KHDO, located miles away from Frio Town, Texas







STORIES FROM OUR PARTNERS